When you browse on this site, cookies collect data to enhance your experience and personalize the content and advertising you see.
Visit our Privacy Policy to learn more. By continuing to use the site, you agree to this use of cookies and data.
  • In United Kingdom
  • List of Countries
  • For 7 days
  • Water Temperature
  • Weather Map
  • Weather Widgets
  • user-avatar
    Login

    Hourly Weather Klagenfurt

    Today, 15 September, Sunday

    Time Temperature Precipitation Wind Pressure Humidity
    00:00 +13°C° 0 mm 0 mps 698 mmHg 94%
    01:00 +14°C° 0 mm 1 mps 698 mmHg 95%
    02:00 +14°C° 0 mm 1 mps 698 mmHg 95%
    03:00 +12°C° 0 mm 0 mps 698 mmHg 95%
    04:00 +12°C° 0 mm 0 mps 697 mmHg 96%
    05:00 +13°C° 0 mm 0 mps 697 mmHg 95%
    06:00 +13°C° 0 mm 0 mps 697 mmHg 93%
    07:00 +14°C° 0 mm 0 mps 698 mmHg 93%
    08:00 +16°C° 0 mm 0 mps 698 mmHg 85%
    09:00 +18°C° 0 mm 0 mps 698 mmHg 77%
    10:00 +19°C° 0 mm 0 mps 698 mmHg 69%
    11:00 +23°C° 0 mm 1 mps 698 mmHg 66%
    12:00 +24°C° 0 mm 1 mps 698 mmHg 62%
    13:00 +25°C° 0 mm 1 mps 698 mmHg 58%
    14:00 +24°C° 0 mm 1 mps 697 mmHg 60%
    15:00 +24°C° 0 mm 1 mps 697 mmHg 62%
    16:00 +24°C° 0 mm 1 mps 696 mmHg 64%
    17:00 +21°C° 0 mm 1 mps 696 mmHg 73%
    18:00 +19°C° 0 mm 1 mps 695 mmHg 82%
    19:00 +16°C° 0 mm 1 mps 695 mmHg 91%
    20:00 +16°C° 0 mm 1 mps 695 mmHg 92%
    21:00 +15°C° 0 mm 1 mps 695 mmHg 92%
    22:00 +15°C° 0 mm 1 mps 695 mmHg 93%
    23:00 +15°C° 0 mm 1 mps 695 mmHg 93%

    Tomorrow, 16 September, Monday

    Time Temperature Precipitation Wind Pressure Humidity
    00:00 +15°C° 0 mm 1 mps 694 mmHg 94%
    01:00 +15°C° 0 mm 1 mps 694 mmHg 94%
    02:00 +13°C° 0 mm 0 mps 694 mmHg 94%
    03:00 +13°C° 0 mm 0 mps 694 mmHg 94%
    04:00 +13°C° 0 mm 0 mps 693 mmHg 94%
    05:00 +14°C° 0 mm 0 mps 693 mmHg 93%
    06:00 +14°C° 0 mm 0 mps 693 mmHg 91%
    07:00 +15°C° 0 mm 0 mps 693 mmHg 90%
    08:00 +17°C° 0 mm 0 mps 694 mmHg 82%
    09:00 +20°C° 0 mm 0 mps 694 mmHg 73%
    10:00 +24°C° 0 mm 1 mps 695 mmHg 65%
    11:00 +25°C° 0 mm 1 mps 694 mmHg 62%
    12:00 +25°C° 0 mm 1 mps 694 mmHg 60%
    13:00 +26°C° 0 mm 1 mps 694 mmHg 57%
    14:00 +26°C° 0.1 mm 1 mps 693 mmHg 60%
    15:00 +25°C° 0.1 mm 1 mps 693 mmHg 63%
    16:00 +25°C° 0.1 mm 1 mps 692 mmHg 65%
    17:00 +22°C° 0.4 mm 1 mps 692 mmHg 74%
    18:00 +20°C° 0.4 mm 1 mps 692 mmHg 83%
    19:00 +18°C° 0.4 mm 1 mps 691 mmHg 92%
    20:00 +18°C° 0.2 mm 1 mps 691 mmHg 93%
    21:00 +16°C° 0.2 mm 1 mps 691 mmHg 93%
    22:00 +16°C° 0.2 mm 1 mps 691 mmHg 94%
    23:00 +15°C° 0 mm 1 mps 691 mmHg 94%

    Day after tomorrow, 17 September, Tuesday

    Time Temperature Precipitation Wind Pressure Humidity
    00:00 +15°C° 0 mm 1 mps 691 mmHg 94%
    01:00 +15°C° 0 mm 1 mps 691 mmHg 94%
    02:00 +14°C° 0 mm 0 mps 691 mmHg 94%
    03:00 +13°C° 0 mm 0 mps 690 mmHg 94%
    04:00 +13°C° 0 mm 0 mps 690 mmHg 95%
    05:00 +14°C° 0 mm 0 mps 690 mmHg 93%
    06:00 +14°C° 0 mm 0 mps 690 mmHg 92%
    07:00 +15°C° 0 mm 0 mps 690 mmHg 91%
    08:00 +17°C° 0.1 mm 0 mps 691 mmHg 85%
    09:00 +19°C° 0.1 mm 0 mps 691 mmHg 78%
    10:00 +23°C° 0.1 mm 1 mps 692 mmHg 71%
    11:00 +23°C° 0.4 mm 1 mps 691 mmHg 71%
    12:00 +24°C° 0.4 mm 1 mps 691 mmHg 70%
    13:00 +24°C° 0.4 mm 1 mps 691 mmHg 70%
    14:00 +24°C° 0.5 mm 1 mps 691 mmHg 73%
    15:00 +23°C° 0.5 mm 1 mps 690 mmHg 76%
    16:00 +22°C° 0.5 mm 1 mps 690 mmHg 80%
    17:00 +21°C° 0.9 mm 1 mps 690 mmHg 84%
    18:00 +19°C° 0.9 mm 1 mps 690 mmHg 89%
    19:00 +16°C° 0.9 mm 0 mps 689 mmHg 93%
    20:00 +16°C° 0.6 mm 1 mps 690 mmHg 93%
    21:00 +16°C° 0.6 mm 1 mps 690 mmHg 94%
    22:00 +16°C° 0.6 mm 1 mps 690 mmHg 94%
    23:00 +15°C° 0.3 mm 1 mps 690 mmHg 95%

    18 September, Wednesday

    Time Temperature Precipitation Wind Pressure Humidity
    00:00 +15°C° 0.3 mm 1 mps 690 mmHg 95%
    01:00 +15°C° 0.3 mm 1 mps 691 mmHg 96%
    02:00 +15°C° 0.4 mm 1 mps 691 mmHg 96%
    03:00 +14°C° 0.4 mm 1 mps 691 mmHg 96%
    04:00 +14°C° 0.4 mm 1 mps 691 mmHg 96%
    05:00 +14°C° 0.8 mm 1 mps 691 mmHg 96%
    06:00 +13°C° 0.8 mm 1 mps 691 mmHg 96%
    07:00 +13°C° 0.8 mm 1 mps 691 mmHg 96%
    08:00 +12°C° 0.2 mm 1 mps 691 mmHg 96%
    09:00 +11°C° 0.2 mm 1 mps 692 mmHg 96%
    10:00 +11°C° 0.2 mm 1 mps 692 mmHg 96%
    11:00 +11°C° 0.1 mm 1 mps 692 mmHg 95%
    12:00 +11°C° 0.1 mm 1 mps 692 mmHg 94%
    13:00 +11°C° 0.1 mm 1 mps 692 mmHg 93%
    14:00 +11°C° 0 mm 1 mps 691 mmHg 92%
    15:00 +11°C° 0 mm 1 mps 691 mmHg 91%
    16:00 +11°C° 0 mm 1 mps 691 mmHg 90%
    17:00 +10°C° 0 mm 1 mps 691 mmHg 91%
    18:00 +10°C° 0 mm 1 mps 691 mmHg 93%
    19:00 +10°C° 0 mm 1 mps 692 mmHg 94%
    20:00 +9°C° 0 mm 1 mps 692 mmHg 94%
    21:00 +9°C° 0 mm 1 mps 692 mmHg 95%
    22:00 +9°C° 0 mm 1 mps 692 mmHg 95%
    23:00 +9°C° 0 mm 1 mps 692 mmHg 94%

    19 September, Thursday

    Time Temperature Precipitation Wind Pressure Humidity
    00:00 +9°C° 0 mm 1 mps 692 mmHg 94%
    01:00 +9°C° 0 mm 1 mps 692 mmHg 93%
    02:00 +9°C° 0 mm 1 mps 692 mmHg 92%
    03:00 +9°C° 0 mm 1 mps 692 mmHg 91%
    04:00 +9°C° 0 mm 1 mps 692 mmHg 90%
    05:00 +9°C° 0 mm 1 mps 692 mmHg 89%
    06:00 +9°C° 0 mm 1 mps 692 mmHg 88%
    07:00 +9°C° 0 mm 1 mps 692 mmHg 87%
    08:00 +10°C° 0 mm 1 mps 692 mmHg 81%
    09:00 +10°C° 0 mm 2 mps 693 mmHg 75%
    10:00 +12°C° 0 mm 2 mps 693 mmHg 69%
    11:00 +12°C° 0 mm 2 mps 693 mmHg 66%
    12:00 +13°C° 0 mm 2 mps 693 mmHg 63%
    13:00 +14°C° 0 mm 2 mps 693 mmHg 60%
    14:00 +14°C° 0 mm 2 mps 693 mmHg 60%
    15:00 +14°C° 0 mm 2 mps 693 mmHg 60%
    16:00 +14°C° 0 mm 2 mps 693 mmHg 60%
    17:00 +12°C° 0 mm 2 mps 693 mmHg 68%
    18:00 +10°C° 0 mm 1 mps 693 mmHg 77%
    19:00 +8°C° 0 mm 1 mps 693 mmHg 86%
    20:00 +7°C° 0 mm 1 mps 694 mmHg 86%
    21:00 +7°C° 0 mm 1 mps 694 mmHg 87%
    22:00 +7°C° 0 mm 1 mps 695 mmHg 87%
    23:00 +6°C° 0 mm 1 mps 695 mmHg 88%

    20 September, Friday

    Time Temperature Precipitation Wind Pressure Humidity
    00:00 +6°C° 0 mm 1 mps 695 mmHg 88%
    01:00 +5°C° 0 mm 1 mps 695 mmHg 89%
    02:00 +5°C° 0 mm 1 mps 695 mmHg 89%
    03:00 +4°C° 0 mm 1 mps 695 mmHg 90%
    04:00 +4°C° 0 mm 1 mps 695 mmHg 90%
    05:00 +4°C° 0 mm 1 mps 695 mmHg 87%
    06:00 +4°C° 0 mm 1 mps 695 mmHg 84%
    07:00 +5°C° 0 mm 1 mps 695 mmHg 81%
    08:00 +7°C° 0 mm 1 mps 696 mmHg 69%
    09:00 +9°C° 0 mm 1 mps 697 mmHg 58%
    10:00 +12°C° 0 mm 2 mps 697 mmHg 47%
    11:00 +13°C° 0 mm 2 mps 697 mmHg 44%
    12:00 +14°C° 0 mm 1 mps 697 mmHg 41%
    13:00 +15°C° 0 mm 1 mps 697 mmHg 39%
    14:00 +14°C° 0 mm 1 mps 696 mmHg 40%
    15:00 +14°C° 0 mm 1 mps 696 mmHg 42%
    16:00 +13°C° 0 mm 1 mps 696 mmHg 44%
    17:00 +11°C° 0 mm 1 mps 696 mmHg 53%
    18:00 +9°C° 0 mm 1 mps 696 mmHg 63%
    19:00 +6°C° 0 mm 1 mps 696 mmHg 73%
    20:00 +6°C° 0 mm 1 mps 696 mmHg 74%
    21:00 +5°C° 0 mm 1 mps 696 mmHg 75%
    22:00 +4°C° 0 mm 1 mps 697 mmHg 75%
    23:00 +4°C° 0 mm 1 mps 697 mmHg 75%
    Show more